Airfield :
LOGIN :

Register | Disclaimer

   EN    FR    IT 

 










Legend :    VFR   Marginal VFR   IFR   Intensive IFR   Very Intensive IFR
Visi :
Ceiling :
>= 8 km
>= 3000ft
5 to 8 km
1000 to 3000 ft
1500m to 5 km
500 to 1000 ft
800 to 1500m
200 to 500 ft
< 800m
< 200 ft
Symbols :   Thunderstorms  Fog  Heavy snow  Heavy precipitations  Wind > 20 kt
SIGMETs :     Misc.  Thunderstorms  Icing  Turbulence  Mountain Waves  Volcanic Ashes






- Airport Elevation : 68 ft
- IATA code : AGH


ESTA - Ängelholm-Helsingborg

CURRENT METAR :
  • 041620Z 29007KT CAVOK 17/10 Q1014

EXPIRED METARs :
  • 041550Z 28007KT 220V310 CAVOK 17/11 Q1015
  • 041520Z 30008KT CAVOK 18/11 Q1015
  • 041450Z 30008KT 250V320 9999 FEW030 18/11 Q1015
  • 041420Z 29008KT 9999 FEW028 18/11 Q1015
  • 041350Z 29009KT 240V320 9999 FEW040 18/11 Q1015

TAF TAF ESTA
Valid from the 04 at 15:00 until the 04 at 19:00 UTC


041409Z 0415/0419 28010KT 9999 SCT035



MET'MAP, your aeronautical weather chart ! - Copyright ORBIFLY December 2007 - Disclaimer

ORBIFLY MET'MAP TEAM :

Programming & Development : Alexandra Zaïnal
Concept & original design : Baudouin d'Aumeries
Assistance for programming : Marc-Olivier Méhu
Technical & hardware support : Manuel Goepfert

Contact : metmap@orbifly.com




SOURCES & CREDITS :

   NOAA